Time,TemperatureF,DewpointF,PressureIn,WindDirection,WindDirectionDegrees,WindSpeedMPH,WindSpeedGustMPH,Humidity,HourlyPrecipIn,Conditions,Clouds,dailyrainin,SoftwareType,DateUTC
2013-03-05 00:00:00,30.2,19.0,29.95,South,173,1.0,4.0,64,0.00,,,0.00,weatherlink.com 1.10,2013-03-05 05:00:00,
2013-03-05 00:15:00,30.2,19.0,29.95,ESE,120,1.0,4.0,64,0.00,,,0.00,weatherlink.com 1.10,2013-03-05 05:15:00,
2013-03-05 00:30:00,30.2,20.0,29.96,SE,131,1.0,3.0,65,0.00,,,0.00,weatherlink.com 1.10,2013-03-05 05:30:00,
2013-03-05 00:45:00,30.2,19.0,29.96,SSE,150,0.0,3.0,64,0.00,,,0.00,weatherlink.com 1.10,2013-03-05 05:45:00,
2013-03-05 01:00:00,30.1,20.0,29.97,ESE,112,2.0,3.0,65,0.00,,,0.00,weatherlink.com 1.10,2013-03-05 06:00:00,
2013-03-05 01:15:00,29.9,19.0,29.97,SSE,157,1.0,4.0,65,0.00,,,0.00,weatherlink.com 1.10,2013-03-05 06:15:00,
2013-03-05 01:30:00,30.0,20.0,29.97,SE,134,0.0,4.0,66,0.00,,,0.00,weatherlink.com 1.10,2013-03-05 06:30:00,
2013-03-05 01:45:00,29.8,20.0,29.96,SE,127,0.0,4.0,66,0.00,,,0.00,weatherlink.com 1.10,2013-03-05 06:45:00,
2013-03-05 02:00:00,29.8,20.0,29.96,SSE,168,2.0,5.0,66,0.00,,,0.00,weatherlink.com 1.10,2013-03-05 07:00:00,
2013-03-05 02:15:00,29.7,20.0,29.95,SE,143,1.0,6.0,67,0.00,,,0.00,weatherlink.com 1.10,2013-03-05 07:15:00,
2013-03-05 02:30:00,29.6,20.0,29.95,ESE,115,2.0,4.0,67,0.00,,,0.00,weatherlink.com 1.10,2013-03-05 07:30:00,
2013-03-05 02:46:00,29.6,20.0,29.95,South,179,0.0,6.0,67,0.00,,,0.00,weatherlink.com 1.10,2013-03-05 07:46:00,
2013-03-05 03:01:00,29.4,20.0,29.95,ESE,103,0.0,2.0,67,0.00,,,0.00,weatherlink.com 1.10,2013-03-05 08:01:00,
2013-03-05 03:16:00,29.3,20.0,29.96,West,267,0.0,2.0,68,0.00,,,0.00,weatherlink.com 1.10,2013-03-05 08:16:00,
2013-03-05 03:31:00,29.1,20.0,29.96,SSE,154,0.0,5.0,68,0.00,,,0.00,weatherlink.com 1.10,2013-03-05 08:31:00,
2013-03-05 03:46:00,29.1,20.0,29.96,East,99,2.0,3.0,69,0.00,,,0.00,weatherlink.com 1.10,2013-03-05 08:46:00,
2013-03-05 04:01:00,29.1,20.0,29.97,ESE,123,0.0,3.0,69,0.00,,,0.00,weatherlink.com 1.10,2013-03-05 09:01:00,
2013-03-05 04:16:00,28.6,20.0,29.98,SE,131,0.0,2.0,70,0.00,,,0.00,weatherlink.com 1.10,2013-03-05 09:16:00,
2013-03-05 04:31:00,28.7,20.0,29.98,ESE,117,1.0,2.0,70,0.00,,,0.00,weatherlink.com 1.10,2013-03-05 09:31:00,
2013-03-05 04:46:00,28.6,20.0,29.99,SE,143,0.0,3.0,70,0.00,,,0.00,weatherlink.com 1.10,2013-03-05 09:46:00,
2013-03-05 05:01:00,28.3,20.0,29.99,SE,126,1.0,3.0,70,0.00,,,0.00,weatherlink.com 1.10,2013-03-05 10:01:00,
2013-03-05 05:16:00,28.4,20.0,30.00,SE,144,0.0,1.0,70,0.00,,,0.00,weatherlink.com 1.10,2013-03-05 10:16:00,
2013-03-05 05:31:00,28.3,20.0,30.00,SE,124,1.0,3.0,70,0.00,,,0.00,weatherlink.com 1.10,2013-03-05 10:31:00,
2013-03-05 05:46:00,28.2,20.0,30.01,ESE,123,0.0,1.0,70,0.00,,,0.00,weatherlink.com 1.10,2013-03-05 10:46:00,
2013-03-05 06:01:00,28.0,20.0,30.02,ESE,115,0.0,1.0,71,0.00,,,0.00,weatherlink.com 1.10,2013-03-05 11:01:00,
2013-03-05 06:16:00,27.8,20.0,30.02,East,94,0.0,2.0,72,0.00,,,0.00,weatherlink.com 1.10,2013-03-05 11:16:00,
2013-03-05 06:31:00,27.8,20.0,30.02,ESE,120,0.0,1.0,72,0.00,,,0.00,weatherlink.com 1.10,2013-03-05 11:31:00,
2013-03-05 06:46:00,27.6,20.0,30.02,SE,129,0.0,1.0,73,0.00,,,0.00,weatherlink.com 1.10,2013-03-05 11:46:00,
2013-03-05 07:01:00,27.6,20.0,30.03,ESE,123,0.0,1.0,73,0.00,,,0.00,weatherlink.com 1.10,2013-03-05 12:01:00,
2013-03-05 07:16:00,28.0,20.0,30.04,ESE,120,0.0,1.0,73,0.00,,,0.00,weatherlink.com 1.10,2013-03-05 12:16:00,
2013-03-05 07:31:00,28.7,20.0,30.04,ESE,117,0.0,1.0,71,0.00,,,0.00,weatherlink.com 1.10,2013-03-05 12:31:00,
2013-03-05 07:46:00,29.6,21.0,30.04,SE,129,0.0,3.0,69,0.00,,,0.00,weatherlink.com 1.10,2013-03-05 12:46:00,
2013-03-05 08:01:00,30.2,20.0,30.04,SE,124,3.0,3.0,67,0.00,,,0.00,weatherlink.com 1.10,2013-03-05 13:01:00,
2013-03-05 08:16:00,30.9,21.0,30.04,SSE,155,0.0,3.0,66,0.00,,,0.00,weatherlink.com 1.10,2013-03-05 13:16:00,
2013-03-05 08:31:00,31.6,21.0,30.05,SE,130,2.0,3.0,65,0.00,,,0.00,weatherlink.com 1.10,2013-03-05 13:31:00,
2013-03-05 08:46:00,32.5,21.0,30.05,West,270,0.0,3.0,64,0.00,,,0.00,weatherlink.com 1.10,2013-03-05 13:46:00,
2013-03-05 09:01:00,33.4,22.0,30.05,SSE,152,1.0,6.0,62,0.00,,,0.00,weatherlink.com 1.10,2013-03-05 14:01:00,
2013-03-05 09:16:00,34.1,22.0,30.05,SE,125,1.0,3.0,61,0.00,,,0.00,weatherlink.com 1.10,2013-03-05 14:16:00,
2013-03-05 09:31:00,35.3,22.0,30.05,SSE,150,1.0,3.0,59,0.00,,,0.00,weatherlink.com 1.10,2013-03-05 14:31:00,
2013-03-05 09:46:00,36.8,23.0,30.05,SE,132,0.0,3.0,57,0.00,,,0.00,weatherlink.com 1.10,2013-03-05 14:46:00,
2013-03-05 10:02:00,37.7,23.0,30.05,SE,131,0.0,3.0,56,0.00,,,0.00,weatherlink.com 1.10,2013-03-05 15:02:00,
2013-03-05 10:17:00,38.6,24.0,30.04,SE,128,0.0,3.0,55,0.00,,,0.00,weatherlink.com 1.10,2013-03-05 15:17:00,
2013-03-05 10:32:00,39.8,24.0,30.04,WSW,242,2.0,4.0,54,0.00,,,0.00,weatherlink.com 1.10,2013-03-05 15:32:00,
2013-03-05 10:47:00,40.4,23.0,30.04,WSW,242,1.0,4.0,51,0.00,,,0.00,weatherlink.com 1.10,2013-03-05 15:47:00,
2013-03-05 11:02:00,40.5,24.0,30.03,SE,136,0.0,2.0,53,0.00,,,0.00,weatherlink.com 1.10,2013-03-05 16:02:00,
2013-03-05 11:17:00,41.2,24.0,30.03,ESE,120,2.0,3.0,51,0.00,,,0.00,weatherlink.com 1.10,2013-03-05 16:17:00,
2013-03-05 11:32:00,41.5,24.0,30.03,WNW,295,0.0,5.0,50,0.00,,,0.00,weatherlink.com 1.10,2013-03-05 16:32:00,
2013-03-05 11:47:00,43.1,25.0,30.03,SE,124,1.0,4.0,49,0.00,,,0.00,weatherlink.com 1.10,2013-03-05 16:47:00,
2013-03-05 12:02:00,43.0,24.0,30.02,East,101,1.0,3.0,48,0.00,,,0.00,weatherlink.com 1.10,2013-03-05 17:02:00,
2013-03-05 12:17:00,44.1,24.0,30.02,WNW,285,1.0,3.0,46,0.00,,,0.00,weatherlink.com 1.10,2013-03-05 17:17:00,
2013-03-05 12:32:00,45.0,25.0,30.01,West,276,2.0,3.0,45,0.00,,,0.00,weatherlink.com 1.10,2013-03-05 17:32:00,
2013-03-05 12:47:00,47.3,27.0,30.01,SE,128,2.0,2.0,45,0.00,,,0.00,weatherlink.com 1.10,2013-03-05 17:47:00,
2013-03-05 13:02:00,47.5,26.0,30.00,SE,128,2.0,4.0,44,0.00,,,0.00,weatherlink.com 1.10,2013-03-05 18:02:00,
2013-03-05 13:17:00,46.9,25.0,30.00,SE,125,0.0,3.0,42,0.00,,,0.00,weatherlink.com 1.10,2013-03-05 18:17:00,
2013-03-05 13:32:00,47.2,26.0,30.00,ESE,117,0.0,3.0,44,0.00,,,0.00,weatherlink.com 1.10,2013-03-05 18:32:00,
2013-03-05 13:47:00,48.6,26.0,30.00,SE,134,1.0,3.0,41,0.00,,,0.00,weatherlink.com 1.10,2013-03-05 18:47:00,
2013-03-05 14:02:00,47.7,24.0,30.00,West,266,0.0,3.0,40,0.00,,,0.00,weatherlink.com 1.10,2013-03-05 19:02:00,
2013-03-05 14:17:00,48.2,26.0,30.00,ENE,68,1.0,1.0,42,0.00,,,0.00,weatherlink.com 1.10,2013-03-05 19:17:00,
2013-03-05 14:32:00,48.2,25.0,30.00,ESE,120,0.0,2.0,41,0.00,,,0.00,weatherlink.com 1.10,2013-03-05 19:32:00,
2013-03-05 14:47:00,48.3,25.0,30.00,West,277,1.0,3.0,40,0.00,,,0.00,weatherlink.com 1.10,2013-03-05 19:47:00,
2013-03-05 15:02:00,49.2,25.0,29.99,West,278,2.0,3.0,39,0.00,,,0.00,weatherlink.com 1.10,2013-03-05 20:02:00,
2013-03-05 15:17:00,49.3,25.0,29.99,SW,236,1.0,3.0,39,0.00,,,0.00,weatherlink.com 1.10,2013-03-05 20:17:00,
2013-03-05 15:32:00,49.0,24.0,29.99,West,273,0.0,2.0,38,0.00,,,0.00,weatherlink.com 1.10,2013-03-05 20:32:00,
2013-03-05 15:47:00,46.6,23.0,29.99,SW,228,0.0,1.0,40,0.00,,,0.00,weatherlink.com 1.10,2013-03-05 20:47:00,
2013-03-05 16:02:00,45.9,24.0,29.98,SE,145,0.0,1.0,42,0.00,,,0.00,weatherlink.com 1.10,2013-03-05 21:02:00,
2013-03-05 16:17:00,46.5,25.0,29.98,East,90,0.0,4.0,43,0.00,,,0.00,weatherlink.com 1.10,2013-03-05 21:17:00,
2013-03-05 16:32:00,46.1,24.0,29.98,WSW,239,1.0,2.0,42,0.00,,,0.00,weatherlink.com 1.10,2013-03-05 21:32:00,
2013-03-05 16:49:00,45.4,24.0,29.98,SE,125,0.0,2.0,43,0.00,,,0.00,weatherlink.com 1.10,2013-03-05 21:49:00,
2013-03-05 17:02:00,44.5,25.0,29.98,SW,219,0.0,2.0,46,0.00,,,0.00,weatherlink.com 1.10,2013-03-05 22:02:00,
2013-03-05 17:17:00,44.0,24.0,29.99,NNW,329,0.0,3.0,46,0.00,,,0.00,weatherlink.com 1.10,2013-03-05 22:17:00,
2013-03-05 17:32:00,43.2,24.0,29.99,SSW,200,0.0,1.0,46,0.00,,,0.00,weatherlink.com 1.10,2013-03-05 22:32:00,
2013-03-05 17:47:00,42.4,24.0,30.00,SW,224,0.0,1.0,48,0.00,,,0.00,weatherlink.com 1.10,2013-03-05 22:47:00,
2013-03-05 18:02:00,41.2,23.0,30.00,SW,229,0.0,1.0,49,0.00,,,0.00,weatherlink.com 1.10,2013-03-05 23:02:00,
2013-03-05 18:17:00,40.1,23.0,30.00,SW,228,0.0,0.0,51,0.00,,,0.00,weatherlink.com 1.10,2013-03-05 23:17:00,
2013-03-05 18:32:00,38.9,23.0,30.01,SW,228,0.0,0.0,54,0.00,,,0.00,weatherlink.com 1.10,2013-03-05 23:32:00,
2013-03-05 18:47:00,37.7,24.0,30.02,SW,228,0.0,0.0,57,0.00,,,0.00,weatherlink.com 1.10,2013-03-05 23:47:00,
2013-03-05 19:02:00,37.4,24.0,30.01,SW,228,0.0,0.0,60,0.00,,,0.00,weatherlink.com 1.10,2013-03-06 00:02:00,
2013-03-05 19:17:00,36.6,24.0,30.02,SW,228,0.0,0.0,61,0.00,,,0.00,weatherlink.com 1.10,2013-03-06 00:17:00,
2013-03-05 19:33:00,35.7,24.0,30.02,SW,228,0.0,0.0,63,0.00,,,0.00,weatherlink.com 1.10,2013-03-06 00:33:00,
2013-03-05 19:48:00,35.5,25.0,30.02,SW,228,0.0,0.0,65,0.00,,,0.00,weatherlink.com 1.10,2013-03-06 00:48:00,
2013-03-05 20:03:00,34.8,24.0,30.02,SW,228,0.0,0.0,66,0.00,,,0.00,weatherlink.com 1.10,2013-03-06 01:03:00,
2013-03-05 20:18:00,34.6,25.0,30.01,SW,228,0.0,0.0,67,0.00,,,0.00,weatherlink.com 1.10,2013-03-06 01:18:00,
2013-03-05 20:33:00,35.0,25.0,30.01,SW,228,0.0,0.0,67,0.00,,,0.00,weatherlink.com 1.10,2013-03-06 01:33:00,
2013-03-05 20:48:00,35.2,26.0,30.01,SW,228,0.0,0.0,68,0.00,,,0.00,weatherlink.com 1.10,2013-03-06 01:48:00,
2013-03-05 21:03:00,35.4,25.0,30.01,SW,228,0.0,0.0,67,0.00,,,0.00,weatherlink.com 1.10,2013-03-06 02:03:00,
2013-03-05 21:18:00,35.7,25.0,30.02,SW,228,0.0,0.0,66,0.00,,,0.00,weatherlink.com 1.10,2013-03-06 02:18:00,
2013-03-05 21:33:00,34.9,25.0,30.01,SE,132,0.0,0.0,68,0.00,,,0.00,weatherlink.com 1.10,2013-03-06 02:33:00,
2013-03-05 21:48:00,34.2,25.0,30.01,SE,133,0.0,0.0,69,0.00,,,0.00,weatherlink.com 1.10,2013-03-06 02:48:00,
2013-03-05 22:03:00,34.2,25.0,30.01,SE,132,0.0,0.0,70,0.00,,,0.00,weatherlink.com 1.10,2013-03-06 03:03:00,
2013-03-05 22:18:00,33.6,25.0,30.01,SE,132,0.0,0.0,72,0.00,,,0.00,weatherlink.com 1.10,2013-03-06 03:18:00,
2013-03-05 22:33:00,33.7,26.0,30.01,SE,132,0.0,0.0,72,0.00,,,0.00,weatherlink.com 1.10,2013-03-06 03:33:00,
2013-03-05 22:48:00,33.5,25.0,30.01,SE,133,0.0,0.0,72,0.00,,,0.00,weatherlink.com 1.10,2013-03-06 03:48:00,
2013-03-05 23:03:00,33.2,26.0,30.00,SE,132,0.0,0.0,74,0.00,,,0.00,weatherlink.com 1.10,2013-03-06 04:03:00,
2013-03-05 23:18:00,33.2,26.0,30.00,SE,132,0.0,0.0,74,0.00,,,0.00,weatherlink.com 1.10,2013-03-06 04:18:00,
2013-03-05 23:33:00,32.8,26.0,30.00,SE,132,0.0,0.0,75,0.00,,,0.00,weatherlink.com 1.10,2013-03-06 04:33:00,
2013-03-05 23:48:00,33.2,26.0,29.99,SE,133,0.0,0.0,76,0.00,,,0.00,weatherlink.com 1.10,2013-03-06 04:48:00,